www.pogodaiklimat.ru

АРХИВ ПОГОДЫ в Вашингтоне

Время (UTC), дата Ветер
(напр.,м/с)
 
Видим.   Явления Облачность Т
(С)
Тd
(С)
f
(%)
Тe
(С)
Тes
(С)
Комфортность

P
(гПа)

Po
(гПа)
Тmin
(С)
Tmax
(С)
R
(мм)
SD
(см)
00:52 14.07 Ю  16 км    2/0 7500 м
[верхняя] 
+26.1  +17.2  58  +30  +30  душно  1022.3  1021.7         
01:52 14.07 Ю  16 км    2/0 7500 м
[верхняя] 
+25.0  +17.2  62  +29  +29  душно  1022.5  1022.1         
02:52 14.07 Ю  16 км    ясно  +24.4  +16.7  62  +28  +28  душно  1022.5  1022.1         
03:52 14.07 Ю  16 км    ясно  +23.9  +16.1  62  +27  +27  жарко  1022.8  1022.4         
04:52 14.07 Ю  16 км    ясно  +22.8  +16.7  68  +27  +27  душно  1022.7  1022.1    +28.3     
05:52 14.07 Ю  16 км    ясно  +22.2  +16.1  68  +26  +26  душно  1022.7  1022.1         
06:52 14.07 ЮЗ  16 км    ясно  +21.7  +15.6  68  +25  +25  комфорт  1022.4  1021.7         
07:52 14.07 ЮЗ  16 км    ясно  +21.7  +15.6  68  +25  +25  комфорт  1022.2  1021.7         
08:52 14.07 Ю  16 км    2/0 7500 м
[верхняя] 
+21.7  +15.0  66  +25  +25  комфорт  1021.9  1021.4         
09:52 14.07 ЮЗ  16 км    ясно  +21.7  +15.6  68  +25  +25  комфорт  1022.0  1021.4         
10:52 14.07 ЮЗ  16 км    ясно  +23.3  +15.6  62  +28  +29  душно  1022.1  1021.7    +23.3     
11:52 14.07 ЮЗ  16 км    ясно  +25.0  +15.0  54  +28  +30  жарко  1022.1  1021.7         
12:52 14.07 Ю  16 км    ясно  +26.7  +16.7  54  +30  +35  душно  1021.8  1021.4         
13:52 14.07 Ю  16 км    ясно  +28.3  +15.6  46  +31  +36  душно  1021.8  1021.1         
14:52 14.07 Ю  16 км    ясно  +30.0  +13.3  36  +31  +36  жарко  1021.6  1021.1         
15:52 14.07 Ю  16 км    ясно  +31.1  +12.8  33  +32  +37  жарко  1021.2  1020.7         
16:52 14.07 Ю  16 км    2/2 750 м  +31.7  +10.6  27  +31  +36  жарко  1020.5  1020.1         
17:52 14.07 Ю  16 км    2/2 1050 м  +32.2  +11.1  27  +32  +36  жарко  1020.0  1019.4         
18:52 14.07 Ю  16 км    2/2 1950 м
[верхняя] 
+32.8  +13.3  31  +34  +37  очень
жарко 
1019.7  1019.0         
19:52 14.07 Ю  16 км    2/2 1950 м
[верхняя] 
+32.0  +14.0  34  +34  +37  душно  1019.0  1018.4         
20:52 14.07 Ю  16 км    2/2 1800 м
[верхняя] 
+31.7  +15.6  38  +34  +36  душно  1018.8  1018.4         
21:22 14.07 Ю  16 км    2/2 1800 м
[верхняя] 
+31.1  +15.0  38  +33  +34  душно    1017.7         
21:52 14.07 Ю  16 км    2/0 7500 м
[верхняя] 
+31.1  +15.6  39  +34  +35  душно  1018.0  1017.3         
22:52 14.07 Ю  16 км    5/0 7500 м
[верхняя] 
+30.0  +14.4  39  +32  +33  жарко  1017.6  1017.0         
23:52 14.07 Ю  16 км    2/0 4500 м
[средняя верхняя] 
+28.9  +15.0  43  +31  +31  жарко  1017.6  1017.0         
00:52 15.07 Ю  16 км    2/0 7500 м
[верхняя] 
+27.8  +15.0  46  +30  +30  жарко  1018.1  1017.7         
01:52 15.07 Ю  16 км    ясно  +26.7  +15.0  49  +29  +29  жарко  1018.4  1018.0         
02:52 15.07 Ю  16 км    ясно  +26.1  +15.0  50  +29  +29  жарко  1018.7  1018.0         
03:52 15.07 Ю  16 км    ясно  +25.6  +15.6  54  +29  +29  душно  1018.8  1018.4         
04:52 15.07 Ю  16 км    ясно  +25.0  +15.6  56  +28  +28  жарко  1018.6  1018.0    +30.0     
05:52 15.07 Ю  16 км    ясно  +24.4  +16.1  60  +28  +28  душно  1018.0  1017.3         
06:52 15.07 Ю  16 км    2/0 7500 м
[верхняя] 
+23.9  +16.1  62  +27  +27  жарко  1017.9  1017.3         
07:52 15.07 Ю  16 км    5/0 7500 м
[верхняя] 
+23.3  +17.2  69  +29  +29  душно  1017.6  1017.0         
08:52 15.07 Ю  16 км    8/0 4800 м
[средняя верхняя] 
+23.3  +16.7  66  +28  +28  душно  1017.2  1016.7         
09:52 15.07 Ю  16 км    8/0 4800 м
[средняя верхняя] 
+23.3  +16.7  66  +28  +28  душно  1017.2  1016.7         
10:52 15.07 Ю  16 км    8/0 4800 м
[средняя верхняя] 
+24.0  +17.0  65  +28  +28  душно  1017.2  1016.7  +23.3       
11:52 15.07 ЮЗ  16 км    8/0 3600 м
[средняя верхняя] 
+25.0  +16.7  60  +29  +30  душно  1017.2  1016.7         
12:52 15.07 Ю  16 км    8/0 3600 м
[средняя верхняя] 
+26.7  +17.2  56  +31  +33  душно  1016.7  1016.3         
13:52 15.07 Ю  16 км    10/0 3600 м
[средняя верхняя] 
+28.0  +18.0  55  +33  +35  очень
душно 
1016.8  1016.3         
14:52 15.07 Ю  16 км    10/0 3600 м
[средняя верхняя] 
+28.3  +18.9  57  +34  +37  очень
душно 
1017.0  1016.3         
15:52 15.07 Ю  16 км    8/0 3300 м
[средняя верхняя] 
+29.4  +18.9  53  +35  +40  очень
душно 
1016.9  1016.3         
16:52 15.07 Ю  16 км    10/0 2100 м
[средняя верхняя] 
+29.0  +19.0  55  +34  +40  очень
душно 
1016.5  1016.0  +23.9  +29.4     
17:52 15.07 Ю  16 км    10/5 1950 м
[средняя верхняя] 
+30.0  +21.0  59  +38  +41  очень
душно 
1016.6  1016.0         
18:52 15.07 Ю  16 км    10/0 2100 м
[средняя верхняя] 
+31.0  +21.0  55  +38  +42  очень
душно 
1016.0  1015.3         
19:52 15.07 Ю  16 км    10/5 1200 м
[средняя верхняя] 
+30.0  +20.6  57  +37  +39  очень
душно 
1015.4  1014.6         
20:52 15.07 Ю  16 км    10/2 1200 м
[средняя верхняя] 
+29.0  +21.0  62  +36  +38  очень
душно 
1015.1  1014.6         
21:52 15.07 ЮЗ  16 км    10/2 1500 м
[средняя верхняя] 
+29.0  +21.0  62  +36  +38  очень
душно 
1015.7  1015.3         
22:52 15.07 ЮЗ  16 км    10/2 1650 м
[средняя верхняя] 
+28.9  +20.0  59  +35  +36  очень
душно 
  1015.3  +28.9  +31.1     

 

Местоположение метеостанции Reagan National Airport: широта 38.8483 долгота -77.0342 высота над уровнем моря 4 м.

В архиве по умолчанию представлена погода в Вашингтоне за последние 1-2 суток. Обновление информации о фактической погоде в базе происходит ежечасно! Архивные данные за месяц целиком и за предыдущие месяцы Вы можете получить, выбрав интересующий диапазон дат из раскрывающегося списка и нажав кнопку "Ввод!".

Внимание! Архив погоды МЕТАР в базе сайта в настоящее время начинается c 1 января 2013 г. Нет смысла пытаться выбрать более раннюю дату.

Внимание! Время в таблицах - всемирное. Для получения местного времени необходимо прибавить поправку, которая в Вашингтоне равна -5 ч.

Ветер - указаны скорость ветра в м/с и направление, откуда дует ветер: С - северный, СВ - северо-восточный, В - восточный, ЮВ - юго-восточный, Ю - южный, ЮЗ - юго-западный, З - западный, СЗ - северо-западный.
Видимость - горизонтальная дальность видимости в метрах или километрах. При видимости от 1 до 10 км при отсутствии осадков обычно наблюдается дымка, при ухудшении видимости до 1 км и менее - туман. В сухую погоду видимость может ухудшаться дымом, пылью или мглою.
Атмосферные явления - указаны явления, наблюдавшиеся в указанный момент времени.
Облачность - указаны через наклонную черту верхняя и нижняя облачность в баллах и высота нижней границы облаков в метрах. Внимание: облачность, как и прочие метеорологические величины в США измеряются автоматическими метеостанциями. Указанные значения в баллах носят условный характер и показывают процент времени, в течение которого, в среднем, лазерный луч высотомера отражался от облаков обратно.
T - Температура воздуха - температура, измеренная на высоте 2 м над землей.
Td - Температура точки росы - температура, при понижении до которой содержащийся в воздухе водяной пар достигнет насыщения.
f - Относительная влажность воздуха - влажноcть воздуха, измеренная на высоте 2 м над землей.
Te - Эффективная температура - температура, которую ощущает одетый по сезону человек в тени. Характеристика душности погоды. При расчете учитывается влияние влажности воздуха и скорости ветра на теплоощущения человека.
Tes - Эффективная температура на солнце - температура, которую ощущает человек, с поправкой на солнечный нагрев. Характеристика знойности погоды. Зависит от высоты солнца над горизонтом, облачности и скорости ветра. Ночью, в пасмурную погоду, а также при ветре 12 м/с и более поправка равна нулю.
P - Атмосферное давление - приведенное к уровню моря атмосферное давление.
Po - Атмосферное давление - измеренное на уровне метеостанции атмосферное давление.
Tmin - Минимальная температура - минимум температуры воздуха на высоте 2 м над землей.
Tmax - Максимальная температура - максимум температуры воздуха на высоте 2 м над землей.
R - Количество осадков - Количество выпавших осадков за 3 или 6 часов, мм.
SD - Снежный покров - Высота снежного покрова, см.